Temp
42 41 41 40 40 40 41 40 41 42 42 43 44 44 43 43 44 44 43 52 56 60 62 65 66 67 67 68 68 68 69 69 69 68 68 69 69 69 69 69 69 70 72
41 41 40 40 39 40 40 40 40 40 40 41 42 43 43 43 43 43 43 43 54 56 60 63 65 66 66 67 68 68 68 69 68 68 68 68 68 68 69 69 69 70 70
41 40 39 38 39 39 39 39 39 39 39 41 41 41 42 42 42 42 43 43 44 52 56 60 63 64 65 66 67 67 67 68 68 67 67 67 67 68 68 69 69 69 69
41 39 38 38 38 38 38 38 38 38 38 38 38 39 39 40 41 42 42 43 43 46 49 57 59 61 63 64 65 65 66 65 66 67 66 66 66 67 68 68 67 68 68
41 40 38 37 37 37 37 38 36 37 36 37 39 39 38 38 39 42 42 43 43 43 44 52 53 54 59 60 62 63 64 65 65 64 64 65 65 65 66 67 66 67 67
40 39 37 37 37 36 36 36 36 35 35 35 40 39 36 37 38 39 39 43 42 42 43 44 43 45 53 56 58 61 62 62 62 62 62 64 63 62 64 65 66 66 66
39 38 36 36 35 35 35 36 35 35 34 34 35 36 36 37 37 38 38 38 40 41 41 41 41 41 42 51 52 56 58 59 60 60 61 61 60 61 63 64 65 64 64
38 37 37 35 35 34 35 35 35 33 32 32 33 32 32 36 37 38 37 39 37 38 40 42 40 41 40 41 45 52 54 55 57 57 58 58 59 60 61 61 62 62 64
37 37 36 35 35 34 34 34 34 34 32 31 32 34 32 32 30 34 36 36 36 36 36 37 39 40 40 39 41 44 50 52 54 55 56 56 56 57 58 59 60 61 62
37 36 36 35 34 33 33 32 34 33 32 31 31 34 31 31 29 30 32 33 34 36 34 34 36 37 38 38 42 45 48 49 49 50 51 52 53 54 55 56 57 59 60
36 35 35 33 33 32 32 33 32 32 31 31 31 30 30 29 29 28 27 29 32 33 34 34 34 34 37 37 36 41 44 45 46 45 46 47 48 50 51 53 55 57 58
34 35 34 33 32 32 32 32 31 32 31 31 30 30 30 28 27 27 25 25 26 30 33 33 33 33 34 35 39 39 40 41 42 42 43 43 44 46 48 50 52 53 55
34 34 34 32 33 32 32 31 31 31 30 30 30 29 30 29 30 28 27 25 24 27 29 31 32 33 36 32 34 37 36 38 39 39 40 41 42 43 44 46 48 50 51
38 36 35 33 32 32 31 31 30 30 29 30 29 29 29 29 29 29 28 26 23 24 27 29 30 29 30 30 32 34 30 34 36 38 39 39 40 41 41 43 44 46 48
37 33 35 33 32 31 31 30 30 29 29 29 29 29 28 28 28 28 28 27 24 19 24 27 28 30 29 29 31 30 29 32 34 35 36 37 38 39 40 41 42 44 46
35 33 33 33 32 31 30 30 29 28 28 28 29 27 27 27 26 27 27 26 25 20 17 25 27 27 28 30 30 29 29 31 31 33 34 35 36 37 39 40 41 43 44
34 33 33 32 31 30 30 29 28 27 27 26 26 26 26 26 24 23 24 24 23 22 17 22 27 26 25 25 26 27 27 27 28 32 33 35 36 37 38 39 40 41 42
33 33 33 33 32 31 30 29 27 26 25 25 25 25 24 25 22 22 21 21 21 21 19 16 22 23 22 24 24 24 27 29 29 31 33 35 36 37 37 38 39 39 40
33 33 32 32 31 31 29 29 28 26 25 25 25 24 23 22 19 19 19 19 19 22 20 17 17 22 22 23 24 25 26 27 30 33 34 35 35 35 36 37 38 38 39
32 31 32 32 31 30 29 28 27 25 24 23 24 23 22 22 20 18 18 18 18 16 16 17 17 19 21 24 25 24 23 26 27 30 32 32 33 34 35 36 36 36 37
33 32 30 30 30 29 28 26 26 23 22 21 22 23 22 22 25 22 18 16 16 13 14 14 16 19 21 23 22 24 23 23 24 27 27 28 28 28 29 32 33 34 35
30 30 29 28 27 29 33 32 27 23 22 22 20 21 22 22 25 27 27 26 20 13 11 13 19 20 21 23 24 23 22 20 18 27 24 24 28 27 29 29 33 34 35
29 29 28 28 27 28 34 34 30 24 22 22 22 22 22 24 22 23 27 29 29 30 30 25 21 22 22 23 24 22 22 22 21 26 24 20 26 24 29 31 34 34 35
28 28 28 27 27 27 34 34 31 24 23 23 23 23 23 23 23 23 23 21 22 23 24 25 24 24 24 26 26 26 23 20 20 23 24 15 21 21 25 27 32 34 35
27 27 27 25 25 25 35 35 30 22 22 22 23 24 23 23 25 27 22 17 19 22 28 30 31 31 31 31 29 22 14 12 11 15 22 17 19 19 23 23 27 33 35
26 27 24 25 25 23 34 34 29 22 19 20 22 23 24 24 26 28 22 15 12 20 22 16 21 23 23 22 25 21 15 10 11 10 21 16 17 17 14 21 24 28 29
MSLP
1020.88 1021.16 1021.38 1021.52 1021.58 1021.63 1021.90 1022.15 1022.26 1022.34 1022.26 1022.14 1022.16 1022.17 1022.13 1022.03 1021.97 1021.82 1021.95 1021.50 1021.16 1020.79 1020.58 1020.18 1019.88 1019.74 1019.47 1019.38 1019.36 1019.22 1019.01 1018.85 1018.82 1018.70 1018.64 1018.36 1018.26 1018.36 1018.30 1017.83 1017.68 1017.44 1017.06
1020.59 1021.10 1021.59 1021.65 1021.67 1021.65 1021.79 1021.93 1022.20 1022.27 1022.31 1022.16 1022.36 1022.14 1022.15 1021.99 1021.85 1021.87 1021.91 1021.77 1021.18 1021.02 1020.78 1020.38 1020.15 1019.72 1019.62 1019.60 1019.48 1019.28 1019.13 1018.87 1018.68 1018.75 1018.63 1018.20 1018.20 1018.37 1018.43 1017.96 1017.62 1017.43 1017.43
1020.44 1020.94 1021.29 1021.57 1021.61 1021.59 1021.68 1021.98 1022.14 1022.24 1022.45 1022.23 1022.37 1022.24 1022.10 1021.90 1021.96 1021.77 1021.86 1021.76 1021.46 1021.21 1020.94 1020.75 1020.29 1020.22 1020.06 1019.70 1019.51 1019.32 1019.38 1019.03 1018.73 1018.79 1018.63 1018.60 1018.45 1018.45 1018.34 1017.78 1017.64 1017.16 1017.23
1019.99 1020.59 1021.02 1021.36 1021.29 1021.57 1021.75 1021.91 1022.16 1022.47 1022.59 1022.49 1022.44 1022.19 1022.17 1022.06 1021.88 1021.90 1021.86 1021.75 1021.70 1021.55 1021.42 1020.98 1020.96 1020.90 1020.50 1020.23 1020.08 1019.96 1019.76 1019.49 1019.27 1019.05 1018.74 1018.81 1018.62 1018.32 1018.19 1018.14 1018.05 1017.65 1017.21
1019.50 1020.06 1020.58 1021.00 1021.08 1021.54 1021.70 1021.84 1022.28 1022.40 1022.58 1022.59 1022.43 1022.22 1022.21 1022.16 1022.07 1022.16 1022.08 1022.04 1021.92 1021.89 1021.72 1021.61 1021.68 1021.46 1021.16 1021.05 1020.91 1020.29 1020.02 1019.29 1019.15 1019.36 1019.31 1018.92 1019.01 1018.86 1018.36 1018.07 1018.07 1017.83 1017.47
1019.11 1019.73 1020.31 1020.73 1020.99 1021.36 1021.70 1021.84 1022.05 1022.33 1022.55 1022.60 1022.39 1022.31 1022.25 1022.14 1022.28 1022.28 1022.53 1022.49 1022.47 1022.51 1022.36 1022.49 1022.32 1022.12 1021.79 1021.63 1021.11 1020.31 1019.97 1019.96 1019.56 1019.79 1019.24 1019.19 1019.19 1019.39 1019.09 1018.55 1018.31 1017.89 1017.36
1018.77 1019.41 1020.03 1020.60 1020.88 1021.21 1021.37 1021.56 1022.03 1022.40 1022.75 1022.44 1022.38 1022.40 1022.46 1022.36 1022.38 1022.57 1022.64 1022.78 1022.83 1022.96 1022.80 1022.77 1022.67 1022.67 1022.22 1021.94 1021.55 1020.98 1020.48 1020.29 1020.04 1019.96 1019.33 1019.55 1019.43 1019.23 1018.95 1018.55 1018.56 1018.26 1017.73
1018.36 1019.04 1019.57 1020.14 1020.51 1020.90 1021.23 1021.47 1021.66 1022.45 1022.97 1022.92 1023.16 1023.55 1023.33 1023.00 1022.89 1022.95 1023.03 1022.99 1023.03 1022.90 1022.88 1022.70 1022.47 1022.51 1022.39 1022.46 1021.95 1021.32 1020.82 1020.77 1020.70 1020.41 1020.08 1019.99 1019.65 1019.32 1019.03 1018.94 1018.93 1018.52 1017.75
1017.90 1018.51 1019.18 1019.75 1020.08 1020.44 1020.65 1020.86 1021.30 1021.80 1022.72 1023.16 1023.06 1023.34 1023.88 1024.12 1024.02 1023.25 1023.18 1023.29 1023.26 1023.30 1023.34 1023.15 1022.81 1022.66 1022.56 1022.43 1022.14 1022.00 1021.61 1021.14 1020.94 1020.87 1020.59 1020.51 1020.35 1019.88 1019.57 1019.11 1018.70 1018.24 1017.95
1017.48 1018.07 1018.77 1019.43 1019.99 1020.39 1020.56 1020.68 1020.89 1021.24 1021.69 1022.64 1023.22 1023.34 1023.66 1024.10 1024.54 1024.31 1023.49 1023.35 1023.19 1023.30 1023.42 1023.19 1023.01 1022.90 1022.68 1022.51 1022.43 1022.36 1022.04 1021.86 1021.70 1021.65 1021.58 1021.25 1020.72 1020.26 1019.87 1019.28 1018.65 1018.24 1017.86
1016.74 1017.33 1017.94 1018.78 1019.60 1020.44 1020.61 1020.68 1021.08 1021.48 1021.63 1022.14 1022.41 1023.24 1023.62 1024.07 1024.43 1025.16 1025.10 1024.50 1023.95 1023.53 1023.54 1023.43 1023.20 1022.86 1022.44 1022.48 1022.61 1022.60 1022.70 1022.57 1022.27 1022.15 1021.73 1021.50 1021.34 1020.97 1020.17 1019.26 1018.64 1018.03 1017.69
1016.28 1016.77 1017.31 1017.82 1018.40 1019.24 1019.94 1020.53 1020.92 1021.24 1021.69 1021.90 1022.14 1022.24 1022.59 1023.30 1023.97 1024.42 1025.04 1024.58 1024.56 1023.77 1023.27 1022.93 1022.85 1022.89 1022.87 1022.71 1022.81 1023.14 1023.00 1022.71 1022.40 1022.19 1021.75 1021.34 1021.06 1020.55 1019.89 1019.32 1018.88 1018.29 1017.91
1015.37 1015.87 1016.66 1017.52 1018.07 1018.41 1018.91 1019.27 1019.98 1020.71 1021.26 1021.78 1021.93 1022.19 1022.31 1022.58 1023.15 1023.81 1024.47 1025.01 1024.98 1023.62 1023.22 1022.58 1022.24 1022.55 1022.96 1023.25 1023.03 1022.90 1022.85 1022.71 1022.26 1021.86 1021.54 1020.98 1020.35 1019.85 1019.47 1019.20 1018.96 1018.30 1017.64
1014.05 1015.01 1015.79 1016.47 1017.30 1018.07 1018.75 1019.01 1019.40 1020.10 1020.69 1021.31 1021.89 1022.15 1022.34 1022.62 1023.11 1023.41 1023.87 1024.56 1025.29 1025.15 1023.94 1022.83 1022.75 1022.99 1022.99 1023.16 1023.20 1023.00 1022.70 1022.22 1021.87 1021.17 1020.81 1020.26 1019.50 1019.20 1018.86 1018.55 1018.35 1017.97 1017.80
1012.99 1014.01 1015.00 1015.90 1016.64 1017.23 1017.99 1018.60 1019.12 1019.39 1020.06 1020.79 1021.27 1021.80 1022.00 1022.30 1022.79 1023.29 1023.46 1023.91 1024.37 1024.95 1024.28 1023.21 1023.09 1022.87 1022.90 1022.60 1022.63 1022.61 1022.38 1021.86 1021.21 1020.59 1020.01 1019.47 1019.18 1018.90 1018.39 1017.99 1017.61 1017.11 1017.07
1012.06 1013.18 1014.06 1015.00 1015.96 1016.79 1017.43 1018.19 1018.80 1019.22 1019.66 1020.43 1021.07 1021.48 1021.84 1022.29 1022.62 1023.30 1023.68 1024.09 1024.48 1024.81 1024.76 1023.64 1023.31 1023.08 1023.27 1023.29 1023.05 1022.54 1021.85 1021.20 1020.82 1020.52 1019.97 1019.31 1019.06 1018.78 1018.39 1017.86 1017.39 1016.95 1016.20
1011.23 1012.12 1013.10 1014.04 1014.99 1015.98 1016.79 1017.72 1018.26 1018.84 1019.21 1020.02 1020.91 1021.35 1021.89 1021.95 1022.49 1022.80 1023.59 1023.83 1024.11 1024.57 1024.47 1023.60 1023.39 1023.10 1023.24 1023.25 1022.90 1022.41 1021.92 1021.55 1020.63 1020.38 1020.35 1019.34 1018.65 1018.35 1017.80 1017.32 1016.85 1016.36 1015.50
1010.39 1011.04 1012.09 1012.80 1013.87 1014.86 1015.64 1016.63 1017.54 1018.40 1018.86 1019.14 1019.82 1020.69 1021.39 1021.65 1021.79 1022.41 1022.97 1023.56 1023.75 1024.11 1024.17 1023.55 1023.41 1023.18 1023.25 1022.76 1022.35 1021.97 1020.94 1020.68 1020.32 1019.86 1019.55 1018.55 1017.95 1017.87 1017.15 1016.81 1016.16 1015.41 1014.78
1009.28 1010.08 1010.91 1011.62 1012.45 1013.46 1014.47 1015.39 1016.42 1017.34 1018.08 1018.15 1018.67 1019.80 1020.55 1021.51 1021.67 1022.00 1022.71 1023.16 1023.48 1023.55 1023.78 1023.67 1023.18 1022.89 1022.44 1021.95 1021.14 1020.60 1019.99 1019.43 1019.39 1018.98 1018.36 1017.73 1017.41 1016.99 1016.36 1015.81 1015.13 1014.71 1014.04
1008.16 1008.84 1009.33 1010.15 1011.01 1012.26 1013.52 1014.44 1015.69 1016.73 1017.80 1018.03 1018.48 1019.15 1019.74 1020.34 1020.77 1021.64 1022.38 1022.59 1023.24 1023.72 1023.66 1023.48 1022.81 1022.56 1021.98 1021.11 1020.58 1019.75 1018.75 1018.94 1018.28 1017.92 1017.22 1016.70 1016.29 1015.65 1015.31 1014.81 1014.28 1013.77 1013.24
1007.15 1007.58 1008.29 1009.52 1010.50 1011.28 1011.91 1013.11 1014.37 1015.71 1017.12 1017.74 1017.91 1018.65 1019.05 1019.17 1019.91 1020.65 1021.21 1021.82 1022.81 1023.24 1023.14 1022.91 1022.35 1021.44 1020.73 1020.37 1020.14 1019.60 1018.71 1017.84 1017.42 1016.79 1015.51 1015.52 1015.08 1014.64 1014.10 1013.59 1013.13 1012.69 1012.15
1006.47 1006.97 1007.72 1008.22 1009.54 1010.11 1010.62 1012.01 1013.39 1014.90 1016.17 1016.93 1017.60 1018.30 1019.04 1019.40 1019.58 1019.78 1020.43 1020.96 1021.89 1022.29 1022.27 1022.34 1021.74 1020.76 1020.18 1020.22 1019.72 1019.59 1018.83 1017.88 1015.88 1015.53 1014.67 1014.01 1014.24 1012.96 1012.50 1012.02 1011.61 1011.24 1010.77
1005.79 1006.00 1006.55 1007.44 1008.49 1009.05 1009.35 1010.91 1012.38 1013.30 1014.61 1015.70 1016.60 1017.25 1018.22 1018.76 1019.12 1019.36 1019.48 1020.21 1020.68 1020.96 1020.96 1021.21 1020.75 1020.43 1019.97 1020.29 1019.82 1019.14 1018.66 1017.70 1016.73 1015.46 1014.88 1012.71 1013.42 1011.83 1011.46 1010.48 1010.11 1009.58 1008.98
1004.37 1005.10 1005.99 1006.65 1007.94 1008.19 1008.43 1010.10 1011.57 1013.02 1013.62 1014.31 1015.33 1016.00 1017.27 1017.94 1018.67 1019.42 1019.61 1020.01 1020.11 1020.42 1021.03 1020.90 1020.54 1020.19 1020.03 1019.56 1019.01 1018.76 1018.27 1017.50 1016.61 1015.51 1015.29 1012.91 1013.03 1010.97 1010.33 1009.52 1008.64 1007.99 1007.35
1003.79 1004.31 1005.18 1005.55 1006.63 1007.78 1008.65 1010.14 1011.23 1012.50 1013.53 1014.08 1015.02 1015.81 1016.72 1017.06 1017.87 1018.33 1018.73 1019.58 1019.46 1020.19 1020.05 1019.41 1019.18 1019.12 1019.17 1018.86 1018.75 1018.55 1018.36 1017.90 1015.80 1014.88 1014.82 1013.63 1012.00 1010.15 1009.14 1008.04 1006.87 1006.17 1005.28
1003.38 1003.94 1004.67 1004.94 1005.50 1006.01 1006.99 1008.63 1010.05 1011.25 1012.70 1013.64 1014.57 1015.30 1015.71 1016.27 1016.78 1017.77 1018.04 1018.75 1019.14 1019.34 1019.03 1019.03 1019.29 1019.03 1019.02 1018.99 1018.93 1018.83 1018.29 1017.87 1016.86 1014.40 1012.77 1013.01 1011.71 1011.40 1008.23 1006.71 1005.41 1004.48 1003.89
Wind_Speed
5 4 4 3 3 3 4 4 3 3 3 4 4 4 4 4 5 3 3 10 11 12 12 10 10 10 11 11 12 12 12 12 12 12 13 14 15 17 18 17 19 21 15
5 4 4 4 4 3 3 4 3 3 3 3 3 4 5 4 5 5 3 4 11 11 11 11 11 12 12 12 12 13 13 12 12 12 12 13 14 16 16 16 16 16 20
6 6 5 4 4 4 5 4 3 2 2 2 4 4 4 5 5 5 4 4 5 10 11 12 12 13 11 11 11 15 16 16 17 16 18 17 14 13 15 14 14 14 13
8 6 5 5 5 4 4 4 3 2 2 3 3 4 4 3 4 5 4 4 4 4 8 14 14 15 14 15 15 13 14 17 15 14 18 20 19 19 15 14 18 17 17
8 7 5 5 5 4 4 3 2 2 2 3 4 4 4 4 4 3 5 6 7 6 5 14 18 18 19 18 17 16 16 15 17 20 20 18 19 22 18 18 19 18 18
8 7 5 6 5 4 4 2 3 2 2 1 2 3 3 3 2 3 5 4 6 7 6 7 6 8 17 18 18 17 17 18 20 20 19 16 19 23 22 22 19 20 20
8 7 5 5 5 5 5 5 3 3 3 3 2 3 3 5 4 5 4 4 5 5 6 5 4 4 5 18 19 18 19 20 20 20 21 22 23 22 21 20 20 23 23
9 8 8 7 7 5 6 5 4 3 2 4 3 1 4 4 3 4 4 3 5 4 6 7 6 6 5 5 10 18 19 19 20 21 21 21 21 22 23 24 26 27 25
9 8 8 7 6 5 6 5 5 6 4 1 3 3 2 2 3 2 2 3 5 4 4 5 6 6 6 5 8 12 18 18 19 20 21 22 22 23 24 24 25 25 25
9 8 8 7 6 4 5 5 5 4 5 5 2 3 4 3 2 4 3 1 3 4 5 4 4 4 5 4 9 13 16 18 19 20 22 23 24 24 24 24 25 26 26
10 10 10 8 7 4 4 6 5 5 2 4 4 3 2 2 3 3 4 4 4 1 2 3 4 3 3 3 3 7 14 16 17 20 21 22 23 24 26 26 27 25 26
8 10 10 10 8 8 7 6 6 7 5 4 2 4 4 4 4 4 2 2 3 3 6 4 3 3 3 4 7 12 15 17 19 21 21 21 23 25 26 27 27 26 28
9 12 12 10 8 9 8 8 7 6 6 5 6 4 3 3 3 3 3 1 3 3 3 3 1 2 4 3 4 13 12 19 20 22 22 23 23 24 24 26 28 28 28
11 12 12 11 10 9 8 7 5 5 6 5 6 4 4 4 4 4 4 4 3 4 4 6 2 3 3 2 7 17 8 17 21 24 25 26 25 25 25 25 27 28 30
9 13 14 12 11 11 11 9 7 8 7 6 6 6 5 4 4 4 3 4 4 3 3 3 2 2 4 6 10 10 9 18 24 24 25 26 27 28 27 27 28 28 31
12 14 15 14 13 11 11 11 7 7 8 6 5 7 4 3 5 4 4 3 2 3 3 3 3 2 5 6 11 11 12 20 21 25 25 25 26 27 28 29 29 30 29
15 15 15 15 15 14 12 11 9 10 10 8 5 7 6 6 5 5 4 4 4 4 5 3 3 1 3 6 9 8 9 10 9 20 24 26 26 28 29 30 30 31 31
15 16 16 16 16 15 15 14 12 11 12 12 11 9 9 7 8 6 5 6 5 4 4 6 3 2 5 7 9 11 8 8 10 16 23 26 27 28 28 30 30 31 32
16 15 16 18 18 17 16 14 14 13 12 12 12 11 10 8 7 5 5 4 4 4 4 6 6 3 5 7 9 9 8 8 7 19 24 27 27 28 29 30 31 32 32
17 17 17 18 18 17 16 14 13 12 10 9 8 8 9 9 8 7 6 5 3 4 5 6 7 8 6 7 7 10 11 9 10 10 18 22 25 27 29 30 30 31 32
16 17 17 15 15 16 14 17 15 12 12 10 9 9 8 9 14 11 6 6 5 5 4 5 8 9 7 8 10 11 13 14 12 13 12 10 11 11 12 21 25 31 33
16 16 16 17 17 13 26 28 19 13 12 12 11 8 8 9 12 14 14 15 13 7 6 4 8 10 11 10 9 11 13 14 15 9 10 14 12 15 14 13 26 32 34
14 16 16 17 18 17 30 31 28 14 14 12 12 11 9 7 10 8 12 13 13 15 14 9 10 11 14 12 12 15 15 15 15 14 18 19 14 16 14 15 31 34 36
17 16 16 17 15 14 31 32 29 13 13 13 13 12 10 10 10 9 8 7 7 8 10 8 10 13 13 11 13 13 15 17 16 14 13 18 13 17 15 15 34 36 38
13 14 14 17 17 13 29 30 25 13 12 12 11 10 10 10 14 17 10 7 6 9 12 17 19 23 26 25 22 13 11 12 15 14 11 14 11 17 15 17 16 32 36
11 10 12 14 17 17 33 34 24 11 13 10 10 11 15 12 16 16 6 5 5 8 5 4 9 10 12 14 23 12 9 11 12 12 3 7 14 14 17 16 15 10 12
Wind_Direction
167 160 167 158 147 134 131 131 111 86 61 46 37 31 21 18 6 6 343 359 3 7 5 8 15 16 16 11 5 2 1 358 353 351 345 345 343 340 340 343 347 343 315
166 162 167 170 155 150 137 126 126 101 65 52 25 14 2 8 9 3 353 345 4 9 13 16 16 22 21 15 13 9 6 5 1 355 353 355 352 343 332 334 336 336 342
167 166 165 171 176 159 135 126 109 91 60 22 18 358 360 5 2 9 357 349 354 4 8 9 21 21 21 20 19 21 5 7 9 8 6 358 342 329 330 338 346 341 322
168 165 167 185 171 151 145 126 124 88 65 32 345 342 347 8 13 14 10 10 1 7 4 19 31 27 23 20 13 2 8 357 351 1 7 1 349 346 343 348 345 341 350
173 168 172 179 160 157 153 150 92 120 53 2 331 336 346 3 19 18 28 17 21 25 26 31 27 26 22 12 1 0 351 12 15 3 356 343 359 348 338 335 337 331 337
170 165 168 172 161 150 155 151 140 89 115 352 327 348 0 32 66 55 24 26 40 31 29 30 21 4 2 359 1 1 10 355 355 346 345 347 351 340 330 328 334 333 332
172 168 165 162 165 170 175 158 126 112 31 7 29 10 3 37 72 37 55 63 45 28 37 25 4 351 351 6 357 0 358 355 354 348 356 348 343 333 332 329 331 330 323
170 169 171 177 176 159 165 165 140 116 81 8 104 94 16 345 14 31 38 62 31 31 11 6 357 353 353 354 356 9 9 360 355 352 349 344 337 340 338 333 325 322 318
175 172 174 173 174 172 176 165 154 144 143 17 37 134 107 215 323 336 17 28 55 14 359 346 349 346 351 347 4 5 6 8 2 354 351 346 339 334 327 325 320 318 316
176 169 168 169 177 183 176 168 163 153 131 149 86 54 52 107 159 324 337 353 10 352 338 325 317 320 333 348 2 5 10 9 359 348 339 334 331 325 319 317 318 317 313
176 176 173 168 170 186 180 162 151 154 147 144 151 155 122 101 101 142 283 324 323 239 286 256 270 280 321 10 6 26 12 354 347 338 332 326 320 317 316 316 314 311 306
182 184 179 175 166 167 174 177 163 164 171 165 160 155 158 159 171 149 220 269 222 264 293 277 299 320 12 48 44 16 351 342 337 331 325 320 316 314 314 312 309 305 302
190 191 178 178 182 179 176 164 164 170 168 172 169 171 152 143 124 126 134 182 315 312 309 252 178 85 79 52 20 355 347 331 331 325 322 320 318 317 315 311 305 301 298
192 177 182 180 174 172 174 168 161 161 167 172 172 160 149 150 151 158 157 153 186 240 306 263 14 92 85 22 353 342 323 326 325 326 324 324 323 320 316 311 306 303 296
175 171 181 179 176 174 174 171 177 173 165 166 174 171 160 163 157 159 149 151 156 198 249 262 275 187 4 3 334 327 318 318 323 324 325 325 322 319 316 313 308 302 298
167 172 178 180 177 177 173 174 175 165 166 175 175 169 164 149 139 141 149 154 186 168 235 246 250 346 6 324 315 319 311 317 319 318 318 317 314 312 310 307 302 297 293
175 176 180 179 178 179 177 179 179 171 172 167 167 170 170 156 157 149 157 166 183 187 242 261 232 1 310 303 301 294 295 299 297 304 304 306 306 304 302 302 299 295 293
181 179 179 180 181 183 179 182 178 180 179 175 175 173 180 175 166 160 164 181 192 205 228 280 255 230 277 293 287 291 296 292 288 290 295 299 300 298 295 295 295 294 292
183 180 179 184 183 183 179 183 183 180 184 180 176 181 176 170 168 163 167 179 193 227 236 268 286 283 284 293 297 295 297 290 284 294 296 295 294 295 293 290 289 288 286
182 185 186 186 183 179 180 177 177 176 181 180 172 173 169 179 165 166 180 170 188 221 251 271 286 290 296 302 290 315 314 303 302 297 291 291 290 288 286 285 284 284 281
192 185 178 183 181 182 178 177 174 171 174 169 167 175 178 170 180 177 163 168 187 212 228 258 283 289 304 321 319 317 307 310 309 295 295 295 288 282 278 278 275 277 277
187 181 186 179 183 189 185 180 168 167 171 173 174 174 181 188 194 192 200 198 200 202 220 238 276 294 304 308 314 310 305 308 314 285 297 298 289 283 281 273 271 272 273
183 188 185 183 188 187 183 182 177 168 170 174 171 171 178 189 189 200 216 226 238 255 261 268 276 284 296 302 302 298 297 296 295 302 306 296 299 284 280 275 277 275 274
188 188 189 187 188 187 183 183 176 170 170 169 172 168 178 177 184 187 194 211 227 243 255 268 271 275 274 277 287 299 307 301 292 290 293 290 297 283 289 283 280 276 273
189 190 188 177 179 178 186 184 173 165 168 166 168 168 177 174 191 197 193 204 228 250 257 276 284 292 297 300 305 307 298 303 295 289 289 289 291 291 295 288 275 271 270
193 182 182 183 182 171 185 186 171 160 165 163 167 179 185 182 192 205 189 180 222 252 261 278 279 290 302 298 296 287 283 275 284 297 194 302 298 300 300 289 271 293 278